Location: Grasslands National Park East Block
(49.0708°N, 106.5295°W)
Time: 22:40:24
(UTC-06:00)

Max Valier Satellite - Pass Details

Date: 22 September 2019
Orbit: 490 x 508 km, 97.3° (Epoch: 18 October)

Event Time Altitude Azimuth Distance (km) Brightness Sun altitude
Exits shadow 20:44:08 17° 50° (NE) 1,369 ? -16.8°
Drops below altitude 10° 20:45:59 10° 21° (NNE) 1,736 ? -17.1°
Sets 20:48:37 0° 2° (N) 2,627 ? -17.5°
